| time (UTC) | temp F | wind direction | speed knots | gust knots | rain 1hr in | rain 24hr in | rain mn in | humidity % | barometer mb |
| 20260508021530 | 48 | 124 | 0.0 | 0.0 | 0.00 | 0.02 | 0.02 | 59 | 1007.2 |
| 20260508020029 | 49 | 124 | 0.0 | 0.0 | 0.00 | 0.02 | 0.02 | 57 | 1007.1 |
| 20260508014528 | 50 | 124 | 0.0 | 0.0 | 0.00 | 0.02 | 0.02 | 55 | 1006.8 |
| 20260508013028 | 50 | 103 | 0.0 | 0.0 | 0.00 | 0.02 | 0.02 | 53 | 1006.6 |
| 20260508011535 | 51 | 103 | 0.0 | 0.0 | 0.00 | 0.02 | 0.02 | 50 | 1006.5 |
| 20260508010030 | 53 | 276 | 0.0 | 0.9 | 0.00 | 0.02 | 0.02 | 49 | 1006.3 |
| 20260508004536 | 54 | 318 | 0.0 | 2.6 | 0.00 | 0.02 | 0.02 | 47 | 1006.0 |
| 20260508003026 | 54 | 298 | 0.0 | 1.7 | 0.00 | 0.02 | 0.02 | 46 | 1005.9 |
| 20260508001529 | 55 | 1 | 0.0 | 2.6 | 0.00 | 0.02 | 0.02 | 44 | 1005.7 |
| 20260508000025 | 56 | 311 | 0.9 | 4.3 | 0.00 | 0.02 | 0.02 | 42 | 1005.6 |
| 20260507234531 | 57 | 255 | 0.0 | 1.7 | 0.00 | 0.12 | 0.02 | 41 | 1005.5 |
| 20260507233028 | 58 | 299 | 0.9 | 8.7 | 0.00 | 0.12 | 0.02 | 40 | 1005.5 |
| 20260507231523 | 59 | 339 | 0.9 | 5.2 | 0.00 | 0.12 | 0.02 | 39 | 1005.3 |
| 20260507230022 | 60 | 309 | 0.0 | 5.2 | 0.00 | 0.12 | 0.02 | 38 | 1005.2 |
| 20260507224524 | 61 | 260 | 2.6 | 8.7 | 0.00 | 0.20 | 0.02 | 36 | 1005.1 |
| 20260507223021 | 62 | 356 | 0.9 | 6.1 | 0.00 | 0.20 | 0.02 | 36 | 1004.9 |
| 20260507221521 | 62 | 106 | 0.9 | 5.2 | 0.00 | 0.20 | 0.02 | 36 | 1004.8 |
| 20260507220019 | 62 | 295 | 2.6 | 10.4 | 0.00 | 0.20 | 0.02 | 36 | 1004.6 |
| 20260507214525 | 63 | 345 | 1.7 | 5.2 | 0.00 | 0.24 | 0.02 | 36 | 1004.5 |
| 20260507213018 | 63 | 274 | 0.0 | 5.2 | 0.00 | 0.24 | 0.02 | 37 | 1004.4 |
| 20260507211518 | 63 | 273 | 0.0 | 4.3 | 0.00 | 0.24 | 0.02 | 37 | 1004.4 |
| 20260507210017 | 64 | 37 | 0.0 | 12.2 | 0.00 | 0.24 | 0.02 | 37 | 1004.5 |
| 20260507204516 | 63 | 186 | 0.9 | 7.8 | 0.00 | 0.36 | 0.02 | 35 | 1004.4 |
| 20260507203017 | 64 | 281 | 1.7 | 7.8 | 0.00 | 0.36 | 0.02 | 36 | 1004.3 |
| 20260507201517 | 63 | 302 | 2.6 | 10.4 | 0.00 | 0.36 | 0.02 | 34 | 1004.4 |
| 20260507200014 | 64 | 108 | 1.7 | 7.8 | 0.00 | 0.36 | 0.02 | 38 | 1004.6 |
| 20260507194514 | 64 | 322 | 0.0 | 7.8 | 0.00 | 0.40 | 0.02 | 40 | 1004.4 |
| 20260507193019 | 64 | 281 | 1.7 | 8.7 | 0.00 | 0.40 | 0.02 | 37 | 1004.5 |
| 20260507191512 | 64 | 293 | 0.9 | 5.2 | 0.00 | 0.40 | 0.02 | 38 | 1004.6 |
| 20260507190015 | 64 | 302 | 1.7 | 5.2 | 0.00 | 0.40 | 0.02 | 38 | 1004.7 |
| 20260507184509 | 64 | 14 | 1.7 | 7.0 | 0.00 | 0.40 | 0.02 | 42 | 1004.8 |
| 20260507183009 | 64 | 280 | 2.6 | 7.0 | 0.00 | 0.40 | 0.02 | 40 | 1004.8 |
| 20260507181507 | 64 | 356 | 3.5 | 7.8 | 0.00 | 0.40 | 0.02 | 39 | 1005.0 |
| 20260507180006 | 64 | 268 | 1.7 | 8.7 | 0.00 | 0.40 | 0.02 | 39 | 1005.2 |
| 20260507174513 | 64 | 258 | 0.9 | 4.3 | 0.00 | 0.40 | 0.02 | 40 | 1005.0 |
| 20260507173002 | 63 | 32 | 0.0 | 7.0 | 0.00 | 0.40 | 0.02 | 46 | 1005.0 |
| 20260507171501 | 63 | 276 | 2.6 | 10.4 | 0.00 | 0.40 | 0.02 | 44 | 1005.3 |
| 20260507164556 | 61 | 129 | 2.6 | 7.0 | 0.00 | 0.40 | 0.02 | 51 | 1005.5 |
| 20260507163054 | 63 | 326 | 0.9 | 5.2 | 0.00 | 0.40 | 0.02 | 59 | 1005.6 |
| 20260507161557 | 59 | 282 | 0.0 | 6.1 | 0.00 | 0.40 | 0.02 | 60 | 1006.0 |
| 20260507160113 | 61 | 22 | 1.7 | 4.3 | 0.00 | 0.40 | 0.02 | 56 | 1006.0 |
| 20260507154550 | 61 | 296 | 0.9 | 5.2 | 0.00 | 0.40 | 0.02 | 59 | 1006.2 |
| 20260507153049 | 60 | 222 | 0.9 | 5.2 | 0.00 | 0.40 | 0.02 | 58 | 1006.2 |
| 20260507151555 | 60 | 94 | 0.0 | 3.5 | 0.00 | 0.40 | 0.02 | 58 | 1006.4 |
| 20260507150046 | 61 | 324 | 0.9 | 6.1 | 0.00 | 0.40 | 0.02 | 54 | 1006.6 |
| 20260507144545 | 61 | 288 | 0.9 | 3.5 | 0.00 | 0.40 | 0.02 | 55 | 1006.8 |
| 20260507143041 | 60 | 49 | 0.9 | 3.5 | 0.00 | 0.40 | 0.02 | 58 | 1006.7 |
| 20260507141538 | 59 | 85 | 0.9 | 4.3 | 0.00 | 0.40 | 0.02 | 59 | 1006.6 |
| 20260507140045 | 58 | 10 | 0.9 | 5.2 | 0.00 | 0.40 | 0.02 | 59 | 1006.7 |
| 20260507134534 | 57 | 257 | 0.9 | 4.3 | 0.00 | 0.40 | 0.02 | 62 | 1006.6 |
| 20260507133034 | 56 | 314 | 0.9 | 5.2 | 0.00 | 0.40 | 0.02 | 65 | 1007.0 |
| 20260507131600 | 55 | 293 | 0.0 | 5.2 | 0.00 | 0.40 | 0.02 | 71 | 1007.1 |
| 20260507130030 | 55 | 323 | 0.0 | 6.1 | 0.00 | 0.40 | 0.02 | 71 | 1007.2 |
| 20260507124531 | 53 | 271 | 0.9 | 7.0 | 0.00 | 0.40 | 0.02 | 70 | 1007.3 |
| 20260507123035 | 53 | 293 | 0.0 | 2.6 | 0.00 | 0.40 | 0.02 | 74 | 1007.2 |
| 20260507121525 | 52 | 356 | 0.9 | 2.6 | 0.00 | 0.40 | 0.02 | 77 | 1007.5 |
| 20260507120030 | 50 | 338 | 0.9 | 3.5 | 0.00 | 0.40 | 0.02 | 82 | 1007.4 |
| 20260507114523 | 49 | 175 | 0.0 | 2.6 | 0.00 | 0.40 | 0.02 | 84 | 1007.4 |
| 20260507113054 | 48 | 262 | 0.0 | 1.7 | 0.00 | 0.40 | 0.02 | 84 | 1007.0 |
| 20260507111523 | 48 | 314 | 0.9 | 4.3 | 0.00 | 0.40 | 0.02 | 85 | 1007.1 |
| 20260507110018 | 48 | 270 | 0.0 | 1.7 | 0.00 | 0.40 | 0.02 | 86 | 1007.1 |
| 20260507104519 | 48 | 278 | 0.0 | 2.6 | 0.00 | 0.40 | 0.02 | 87 | 1006.8 |
| 20260507103014 | 48 | 281 | 0.0 | 4.3 | 0.00 | 0.40 | 0.02 | 87 | 1006.6 |
| 20260507101521 | 48 | 307 | 0.0 | 2.6 | 0.00 | 0.40 | 0.02 | 87 | 1006.6 |
| 20260507100027 | 48 | 335 | 0.0 | 4.3 | 0.00 | 0.40 | 0.02 | 88 | 1006.6 |
| 20260507094510 | 48 | 260 | 0.0 | 2.6 | 0.00 | 0.40 | 0.02 | 89 | 1006.3 |
| 20260507093013 | 48 | 334 | 0.0 | 3.5 | 0.01 | 0.40 | 0.02 | 89 | 1006.6 |
| 20260507091509 | 48 | 354 | 0.0 | 1.7 | 0.01 | 0.40 | 0.02 | 89 | 1006.8 |
| 20260507090007 | 48 | 266 | 0.0 | 4.3 | 0.01 | 0.40 | 0.02 | 88 | 1006.3 |
| 20260507084503 | 48 | 274 | 0.0 | 2.6 | 0.01 | 0.40 | 0.02 | 89 | 1006.3 |
| 20260507083007 | 49 | 281 | 0.0 | 3.5 | 0.00 | 0.39 | 0.01 | 89 | 1006.1 |
| 20260507081501 | 49 | 278 | 0.0 | 2.6 | 0.00 | 0.39 | 0.01 | 88 | 1006.1 |
| 20260507080058 | 50 | 284 | 0.0 | 4.3 | 0.00 | 0.39 | 0.01 | 86 | 1006.3 |
| 20260507074556 | 50 | 267 | 0.9 | 5.2 | 0.00 | 0.39 | 0.01 | 86 | 1006.4 |
| 20260507073058 | 50 | 213 | 0.9 | 8.7 | 0.00 | 0.39 | 0.01 | 86 | 1006.1 |
| 20260507071552 | 50 | 287 | 0.0 | 7.0 | 0.00 | 0.39 | 0.01 | 87 | 1006.0 |
| 20260507070104 | 51 | 241 | 0.9 | 3.5 | 0.00 | 0.39 | 0.01 | 88 | 1005.6 |
| 20260507064553 | 51 | 268 | 0.0 | 5.2 | 0.00 | 0.39 | 0.01 | 89 | 1005.7 |
| 20260507063053 | 51 | 316 | 0.0 | 4.3 | 0.00 | 0.39 | 0.01 | 89 | 1005.5 |
| 20260507061546 | 52 | 226 | 0.9 | 3.5 | 0.00 | 0.39 | 0.01 | 90 | 1005.6 |
| 20260507060048 | 52 | 325 | 0.9 | 3.5 | 0.00 | 0.39 | 0.01 | 90 | 1005.8 |
| 20260507054544 | 52 | 307 | 0.9 | 5.2 | 0.00 | 0.39 | 0.01 | 91 | 1005.9 |
| 20260507053040 | 53 | 93 | 0.0 | 3.5 | 0.00 | 0.39 | 0.01 | 91 | 1006.0 |
| 20260507051539 | 53 | 280 | 0.0 | 1.7 | 0.01 | 0.39 | 0.01 | 91 | 1006.1 |
| 20260507050059 | 53 | 285 | 0.0 | 3.5 | 0.01 | 0.39 | 0.01 | 91 | 1005.9 |
| 20260507044546 | 54 | 75 | 0.0 | 3.5 | 0.01 | 0.39 | 0.01 | 91 | 1005.6 |
| 20260507043032 | 54 | 287 | 0.0 | 4.3 | 0.01 | 0.39 | 0.01 | 91 | 1005.8 |
| 20260507041529 | 55 | 316 | 0.9 | 4.3 | 0.00 | 0.38 | 0.00 | 91 | 1005.8 |
| 20260507040024 | 57 | 94 | 0.9 | 7.0 | 0.00 | 0.38 | 0.00 | 92 | 1005.5 |
| 20260507034519 | 58 | 319 | 0.0 | 3.5 | 0.00 | 0.38 | 0.38 | 94 | 1005.2 |
| 20260507033026 | 59 | 231 | 0.9 | 3.5 | 0.00 | 0.38 | 0.38 | 94 | 1004.8 |
| 20260507031515 | 59 | 155 | 0.9 | 4.3 | 0.00 | 0.38 | 0.38 | 94 | 1004.4 |
| 20260507030015 | 59 | 134 | 0.0 | 3.5 | 0.00 | 0.38 | 0.38 | 94 | 1004.4 |
| 20260507024517 | 59 | 195 | 0.9 | 6.1 | 0.00 | 0.38 | 0.38 | 94 | 1004.5 |
| 20260507023013 | 59 | 279 | 0.0 | 2.6 | 0.00 | 0.38 | 0.38 | 94 | 1004.3 |